Weather Roundup
Issued by NWS Chicago, IL

Home | Current Version | Previous Version | Graphics & Text | Print | Product List | Glossary On
Versions: 1 2 3 4 5 6 7 8 9 10 11 12 13 14 15 16 17 18 19 20 21 22 23 24 25 26 27 28 29 30 31 32 33 34 35 36 37 38 39 40 41 42 43 44 45 46 47 48 49 50
000
NZUS59 KLOT 211608
HRRLOT

CHICAGO AREA WEATHER ROUNDUP
NATIONAL WEATHER SERVICE CHICAGO/ROMEOVILLE IL
1000 AM CST SUN JAN 21 2018

NOTE: "FAIR" INDICATES FEW OR NO CLOUDS BELOW 12,000 FEET WITH NO
SIGNIFICANT WEATHER AND/OR OBSTRUCTIONS TO VISIBILITY.

* THESE STATIONS ARE NOT UNDER NWS QUALITY CONTROL. THEY ALSO MAY NOT
  REPORT WEATHER SUCH AS PRECIPITATION OR FOG.

ILZ005-006-012>014-019>023-211700-
NORTHEAST ILLINOIS

CITY           SKY/WX    TMP DP  RH WIND       PRES   REMARKS
OHARE          FOG       40  39  97 CALM      29.97S VSB 1/2
MIDWAY         CLOUDY    42  41  96 S3        29.98S FOG
AURORA         FOG       39  39 100 E5        29.97S VSB<1/4
LANSING*       CLOUDY    41  41 100 S7        29.99S FOG
JOLIET*        CLOUDY    41  41 100 SE5       29.99R FOG
WAUKEGAN       CLOUDY    38  36  92 SE3       29.98R FOG
DUPAGE AIRPORT FOG       39  39 100 SE6       29.97R VSB<1/4
WHEELING       CLOUDY    42  40  92 S3        30.00R FOG
KANKAKEE*      FOG      N/A N/A N/A SE6       30.00S VSB<1/4
MORRIS*        FOG       40  39  98 SE5       29.97R VSB 1/4
LEWIS AIRPORT* FOG       40  40 100 S9        29.98S VSB 3/4
NORTHERLY ISL    N/A     40  38  93 S3          N/A
$$

WIZ051-052-058>065-066-070>072-211700-
SOUTHEAST WISCONSIN

CITY           SKY/WX    TMP DP  RH WIND       PRES   REMARKS
MILWAUKEE      CLOUDY    38  36  92 CALM      29.98S FOG
KENOSHA*       CLOUDY    39  36  89 E3        29.98R FOG
RACINE*        CLOUDY    37  35  92 CALM      30.00R FOG
BURLINGTON     CLOUDY    36  34  92 CALM      29.97S FOG
WAUKESHA       CLOUDY    34  34 100 CALM      29.98S FOG
WEST BEND      FOG       34  34 100 CALM      29.98S VSB<1/4
$$

INZ001>003-010>013-019-020-211700-
NORTHWEST INDIANA

CITY           SKY/WX    TMP DP  RH WIND       PRES   REMARKS
GARY*          CLOUDY    41  41 100 SE5       29.99S
MICHIGAN CITY* NOT AVBL
RENSSELAER*    NOT AVBL
VALPARAISO     FOG       39  39 100 S6        30.01R VSB<1/4
$$

LMZ740>746-211700-
SOUTHERN LAKE MICHIGAN

STATION/POSITION TIME  SKY/WX   TEMP WIND        PRES    VSBY
                                AIR  DIR/SP/G
                 (UTC)          (F)  (DEG/KT/KT) (MB)    (MI)
HARRISON CRIB    1540            39  160/  7/  8   N/A
BURNHAM HARBOR   1600            39  160/  4/  8   N/A
CALUMET HARBOR   1542            40  180/  5/  7 1014.8R
BURNS HARBOR     1540            40  190/  9/ 13 1016.6R
MICHIGAN CITY    1540            39  140/  7/  9   N/A
$$

ABBREVIATIONS USED IN REMARKS
   TC - TEMPERATURE IN CELSIUS
  WCI - WIND CHILL INDEX
   HX - HEAT INDEX
  VSB - VISIBILITY
$$




USA.gov is the U.S. government's official web portal to all federal, state and local government web resources and services.